Terminal Aerodrome Forecast
Issued by NWS Wilmington, OH

Current Version | Previous Version | Text Only | Print | Product List | Glossary Off
Versions: 1 2 3 4 5 6 7 8 9 10 11 12 13 14 15 16 17 18 19 20 21 22 23 24 25 26 27 28 29 30

000
FTUS41 KILN 150500
TAFILN
TAF
KILN 150528Z 1506/1606 21005KT 6SM HZ OVC025
     FM150900 19003KT 4SM BR OVC015
     FM151900 14009KT P6SM BKN025
     FM152100 14009KT P6SM SCT030 OVC250
     FM160100 14006KT P6SM -RA OVC025
     FM160500 15006KT P6SM VCSH OVC015=

USA.gov is the U.S. government's official web portal to all federal, state and local government web resources and services.